Regional Weather Roundup
Issued by NWS

Home | Current Version | Previous Version | Graphics & Text | Print | Product List | Glossary On
Versions: 1 2 3 4 5 6 7 8 9 10 11 12 13 14 15 16 17 18 19 20 21 22 23 24 25 26 27 28 29 30 31 32 33 34 35 36 37 38 39 40 41 42 43 44 45 46 47 48 49 50
000
ASUS45 KCYS 261010
RWRWY

WYOMING REGIONAL WEATHER ROUNDUP
NATIONAL WEATHER SERVICE CHEYENNE WY
400 AM MDT SAT JUL 26 2014

NOTE:  "FAIR" INDICATES FEW OR NO CLOUDS BELOW 12,000 FEET
WITH NO SIGNIFICANT WEATHER AND/OR OBSTRUCTIONS TO VISIBILITY.

WYZ001-261100-
YELLOWSTONE NATIONAL PARK

CITY           SKY/WX    TMP DP  RH WIND       PRES   REMARKS
LK YELLOWSTONE   N/A     34  29  82 CALM      30.32R
W YELLOWSTONE  NOT AVBL

$$
WYZ002>013-054>058-071-098>099-261100-
NORTHERN WYOMING

CITY           SKY/WX    TMP DP  RH WIND       PRES   REMARKS
JACKSON        CLEAR     37  30  75 N10       30.22S WCI  30
CODY           NOT AVBL
GREYBULL       CLEAR     64  28  25 S5        30.03R
WORLAND        CLEAR     60  31  33 SW5       30.06R
SHERIDAN       CLEAR     55  36  48 CALM      30.07R
BUFFALO        CLEAR     63  26  24 NW13      30.12R
GILLETTE       CLEAR     58  30  34 NW8       30.06R
HULETT         FAIR      57  45  62 MISG      30.05
NEWCASTLE      FAIR      64  41  42 NW9       30.00

$$
WYZ014>020-022>026-101>103-261100-
CENTRAL WYOMING

CITY           SKY/WX    TMP DP  RH WIND       PRES   REMARKS
BIG PINEY      PTCLDY    45  27  49 E3        30.27S
PINEDALE       SUNNY     41  34  75 NW5       30.29R
DUBOIS         FAIR      46  23  39 NW9       30.24R
LANDER         CLEAR     55  29  36 SE8       30.13R
RIVERTON       CLEAR     60  23  24 NW9       30.14R
CASPER         CLEAR     53  37  54 SW3       30.14S
DOUGLAS        CLEAR     60  44  55 NW8       30.11R

$$
WYZ021-027>030-104>119-261100-
SOUTHERN WYOMING

CITY           SKY/WX    TMP DP  RH WIND       PRES   REMARKS
EVANSTON       PTCLDY    60  31  33 N5        30.27S
KEMMERER       MOSUNNY   52  30  43 NW10      30.29S
FORT BRIDGER   FAIR      61  31  32 W7        30.29S
ROCK SPRINGS   MOCLDY    62  24  23 S5        30.23S
DIXON          FAIR      57  44  60 SE8       30.24S
RAWLINS        PTCLDY    66  43  43 W8        30.22S
SARATOGA       FAIR      57  45  62 S8        30.25S
LARAMIE        CLEAR     58  43  57 W9        30.24R
CHEYENNE       CLEAR     70  44  39 W18G24    30.13R
TORRINGTON     CLEAR     68  49  50 NW14      29.98R
PINE BLUFFS    FAIR      61  48  63 SW8       30.05S

$$


USA.gov is the U.S. government's official web portal to all federal, state and local government web resources and services.